[[{"header":{"parameterUnit":"m.s-1","parameterCategory":1,"la1":30.2991,"la2":30.254,"lo1":-89.0895,"lo2":-89.0444,"dy":0.0017,"dx":0.0017,"nx":28,"ny":28,"refTime":"2023-07-29T09:00:00:Z","depth":0,"parameterNumber":2,"parameterNumberName":"U-component_of_WINDS"},"data":[0,0,0,0,0,0,0,0,0,0,0,0,0,0,0,0,0,0,0,0,0,0,0,0,0,0,0,0,0,0,0,0,0,0,0,0,0,0,0,0,0,0,0,0,0,0,0,0,0,0,0,0,0,0,0,0,0,0,4.7668,4.7669,0,4.7786,4.7787,4.7789,4.7683,4.7679,4.7674,4.767,4.7793,4.78,4.7808,0,0,0,0,0,0,0,0,0,0,0,0,0,4.7352,4.7358,4.7668,4.7669,4.7671,4.7786,4.7787,4.7789,4.7684,4.7678,4.7673,4.7668,4.7791,4.78,4.7808,0,0,0,0,0,0,0,0,0,0,0,0,0,4.7481,4.736,4.7668,4.7632,4.763,4.7785,4.7787,4.7789,4.7685,4.7678,4.7672,4.7666,4.7788,4.7799,4.781,4.8007,0,0,4.7843,4.7848,0,0,0,0,0,0,0,0,4.7474,4.7493,4.7636,4.7635,4.7633,4.7713,4.7721,4.7862,4.7686,4.7664,4.767,4.7663,4.7772,4.7784,4.782,4.8012,4.8018,4.7844,4.7851,4.7855,4.7858,0,0,0,0,0,0,0,4.7465,4.7487,4.7714,4.7638,4.7636,4.761,4.7622,4.7747,4.7753,4.7666,4.7658,4.7673,4.777,4.781,4.7822,4.8019,4.7844,4.7853,4.786,4.7864,4.8375,4.8382,0,0,0,0,0,0,4.746,4.7481,4.7711,4.7718,4.7536,4.7621,4.7634,4.7694,4.7751,4.7754,4.7679,4.7668,4.7794,4.781,4.7826,4.8058,4.7855,4.7866,4.7872,4.8368,4.8377,4.8384,0,0,0,0,0,0,4.7454,4.7481,4.7706,4.7597,4.7624,4.7634,4.7702,4.77,4.7739,4.7761,4.7762,4.7719,4.779,4.7811,4.7961,4.806,4.787,4.788,4.836,4.8371,4.838,4.8524,0,0,0,0,0,0,4.7445,4.748,4.7555,4.76,4.763,4.784,4.7708,4.7707,4.7758,4.7745,4.7799,4.7801,4.7787,4.7946,4.7972,4.8072,4.7889,4.8351,4.8365,4.8377,4.851,4.8538,4.8562,0,0,0,0,0,4.7434,4.7592,4.7559,4.7588,4.7724,4.7846,4.7863,4.7842,4.7767,4.7842,4.7855,4.78,4.8046,4.7962,4.7991,4.8096,4.8345,4.8361,4.8376,4.8499,4.8533,4.8561,0,0,0,0,0,0,4.756,4.7597,4.7561,4.7739,4.779,4.7827,4.7922,4.7879,4.7953,4.7938,4.7909,4.7922,4.808,4.8103,4.8009,4.8288,4.8183,4.8205,4.8266,4.8299,4.8324,4.8314,4.7898,0,0,0,0,0,4.7608,4.7703,4.7731,4.7885,4.7912,4.7913,4.7965,4.7944,4.7996,4.8017,4.8042,4.8095,4.8183,4.8243,4.8326,4.8514,4.8522,4.86,4.8626,4.8647,4.8666,4.8763,4.8797,4.8436,4.8436,4.8436,0,0,4.7709,4.7741,4.7803,4.7911,4.7948,4.8046,4.7932,4.8042,4.8114,4.8034,4.8176,4.8197,4.8254,4.8423,4.8499,4.8447,4.8767,4.8667,4.8683,4.8691,4.8783,4.8817,4.8847,4.8447,4.8445,4.8443,0,0,4.7942,4.7978,4.8107,4.8146,4.8203,4.8202,4.8233,4.8278,4.8287,4.843,4.8371,4.8457,4.8612,4.8653,4.8695,4.8942,4.8892,4.897,4.9104,4.9199,4.9227,4.9252,4.9337,4.9369,4.8989,4.899,4.899,0,4.806,4.8206,4.818,4.8293,4.8341,4.8272,4.8402,4.8442,4.8524,4.8558,4.8499,4.8689,4.8723,4.8899,4.8959,4.8996,4.9029,4.8963,4.9225,4.925,4.9273,4.9354,4.9386,4.8999,4.8998,4.8997,4.8996,0,4.8347,4.8449,4.8547,4.8625,4.8685,4.8807,4.8798,4.8862,4.8835,4.8841,4.8985,4.9023,4.9111,4.9152,4.9129,4.9325,4.929,4.923,4.9123,4.9317,4.9392,4.9423,4.9011,4.9008,4.9006,4.9003,0,0,4.8663,4.8723,4.876,4.8793,4.885,4.8928,4.9046,4.9131,4.9184,4.9243,4.9339,4.9471,4.9413,4.9461,4.9441,4.9526,4.9715,4.9454,4.9454,4.9498,4.9929,4.9973,5.0009,4.9683,4.9689,4.9693,4.9923,0,4.8896,4.9099,4.9078,4.9271,4.9363,4.9299,4.9401,4.9446,4.9454,4.9534,4.9543,4.9635,4.9554,4.9581,4.9662,4.9675,4.98,4.9658,4.9771,4.9775,4.9756,5.0049,5.0096,5.0311,4.9953,4.9958,4.9962,0,4.9194,4.9261,4.9463,4.9502,4.954,4.9633,4.9707,4.9784,4.9834,4.9834,4.9886,4.9851,4.9968,4.9861,5.0021,4.9925,4.997,4.9983,4.9991,4.9999,4.9878,5.0062,5.0379,5.0411,5.0008,5.0005,5.0001,0,4.94,4.9541,4.9679,4.971,4.9761,4.9826,4.9851,4.9894,4.9945,5.0011,5.0043,5.0123,5.0166,5.0227,5.0214,5.0138,5.0377,5.027,5.0378,5.0379,5.043,5.0426,5.0756,5.0464,5.0464,5.0463,5.0462,0,4.9661,4.9786,4.9771,4.9856,4.9994,4.9969,5.0106,5.0123,5.0161,5.0247,5.0197,5.0279,5.0258,5.034,5.0331,5.0463,5.0484,5.0485,5.0481,5.0488,5.0488,5.0516,5.0499,5.0472,5.047,5.0468,5.0467,0,4.9913,4.9909,5.0054,5.009,5.0101,5.0201,5.0231,5.0311,5.0314,5.0423,5.0448,5.0453,5.0546,5.0539,5.0645,5.0638,5.08,5.078,5.0783,5.0778,5.0885,5.0874,5.1243,5.1288,5.097,5.0973,5.0975,0,5.0078,5.0173,5.0217,5.0271,5.0299,5.0386,5.0437,5.0416,5.0472,5.0534,5.0606,5.0693,5.0762,5.0913,5.0926,5.1006,5.0985,5.1108,5.0996,5.1,5.0983,5.0976,5.0984,5.113,5.1133,5.1136,5.1139,0,5.037,5.0363,5.0438,5.0513,5.0575,5.0633,5.0686,5.0733,5.0717,5.0782,5.0875,5.0928,5.1034,5.1121,5.1196,5.122,5.1177,5.1174,5.1203,5.121,5.1206,5.1206,5.084,5.1165,5.1163,5.1161,5.1159,5.1158,5.0582,5.0661,5.0704,5.0789,5.0826,5.0876,5.0951,5.0963,5.104,5.1124,5.1107,5.1211,5.1256,5.1352,5.1384,5.1465,5.142,5.1463,5.1473,5.1483,5.1494,5.1196,5.1479,5.1478,5.1478,5.1477,5.1476,0,5.0868,5.0892,5.0971,5.1045,5.1112,5.1064,5.112,5.1178,5.127,5.1316,5.1384,5.1489,5.1573,5.1592,5.1672,5.1733,5.1714,5.1754,5.1748,5.1754,5.1531,5.1496,5.1767,5.1767,5.1767,5.1767,5.1767,5.1767,5.1025,5.1156,5.1153,5.1302,5.1325,5.1425,5.146,5.1506,5.1541,5.1661,5.173,5.1741,5.1776,5.1857,5.1931,5.1935,5.1965,5.2013,5.2008,5.1799,5.177,5.1742,5.1709,5.202,5.202,5.2223,5.2225,5.2226]},{"header":{"parameterUnit":"m.s-1","parameterCategory":1,"la1":30.2991,"la2":30.254,"lo1":-89.0895,"lo2":-89.0444,"dy":0.0017,"dx":0.0017,"nx":28,"ny":28,"refTime":"2023-07-29T09:00:00:Z","depth":0,"parameterNumber":3,"parameterNumberName":"V-component_of_WINDS"},"data":[0,0,0,0,0,0,0,0,0,0,0,0,0,0,0,0,0,0,0,0,0,0,0,0,0,0,0,0,0,0,0,0,0,0,0,0,0,0,0,0,0,0,0,0,0,0,0,0,0,0,0,0,0,0,0,0,0,0,2.8733,2.8734,0,2.8801,2.8801,2.8802,2.8785,2.8783,2.8782,2.8781,2.8847,2.885,2.8853,0,0,0,0,0,0,0,0,0,0,0,0,0,2.8585,2.8587,2.8733,2.8734,2.8735,2.88,2.8801,2.8802,2.8785,2.8783,2.8782,2.878,2.8846,2.8849,2.8853,0,0,0,0,0,0,0,0,0,0,0,0,0,2.865,2.8588,2.8733,2.8734,2.8735,2.88,2.8801,2.8803,2.8785,2.8783,2.8781,2.8779,2.8845,2.8849,2.8853,2.8921,0,0,2.8867,2.8869,0,0,0,0,0,0,0,0,2.8647,2.8656,2.8733,2.8734,2.8735,2.8782,2.8773,2.8842,2.8786,2.8766,2.8781,2.8778,2.8827,2.8832,2.8849,2.8924,2.8927,2.8868,2.887,2.8872,2.8873,0,0,0,0,0,0,0,2.8642,2.8653,2.876,2.8734,2.8735,2.873,2.8737,2.8786,2.8806,2.8767,2.8766,2.8775,2.8827,2.8845,2.8851,2.8928,2.8867,2.8871,2.8874,2.8876,2.9059,2.9061,0,0,0,0,0,0,2.8637,2.8649,2.8757,2.8762,2.8685,2.8734,2.8742,2.8769,2.8806,2.881,2.8776,2.8774,2.8838,2.8846,2.8853,2.8933,2.8872,2.8876,2.8879,2.9057,2.9059,2.9062,0,0,0,0,0,0,2.8634,2.8647,2.8755,2.8705,2.8718,2.8739,2.8769,2.8771,2.879,2.8813,2.8816,2.8792,2.8837,2.8847,2.8904,2.8935,2.8878,2.8882,2.9054,2.9058,2.9061,2.9095,0,0,0,0,0,0,2.863,2.8646,2.8673,2.8706,2.8721,2.8806,2.8771,2.8774,2.8798,2.8795,2.8828,2.8831,2.8836,2.8897,2.8908,2.894,2.8886,2.9052,2.9056,2.906,2.9091,2.9099,2.9106,0,0,0,0,0,2.8625,2.868,2.8675,2.8688,2.8756,2.8808,2.8816,2.8822,2.8801,2.8827,2.8841,2.883,2.893,2.8903,2.8916,2.8949,2.905,2.9055,2.9059,2.9088,2.9097,2.9105,0,0,0,0,0,0,2.865,2.8684,2.8679,2.8747,2.8774,2.8805,2.8838,2.8832,2.8866,2.8862,2.8866,2.8873,2.8931,2.8946,2.8916,2.9016,2.8987,2.8994,2.9004,2.9013,2.902,2.9015,2.889,0,0,0,0,0,2.8663,2.8704,2.8731,2.8788,2.8803,2.8818,2.8841,2.8843,2.8872,2.8883,2.8902,2.8929,2.8966,2.8991,2.9026,2.9093,2.9099,2.9122,2.913,2.9135,2.9142,2.9176,2.9186,2.9078,2.9078,2.9078,0,0,2.8691,2.8715,2.874,2.8794,2.8816,2.8856,2.8828,2.8873,2.8902,2.8889,2.8944,2.8959,2.8989,2.9051,2.9079,2.9065,2.9173,2.9142,2.9146,2.9149,2.9182,2.9192,2.9201,2.9081,2.908,2.908,0,0,2.8763,2.8786,2.8835,2.8857,2.8891,2.89,2.8912,2.8943,2.8953,2.9008,2.8999,2.9033,2.9098,2.912,2.9139,2.9217,2.9207,2.9229,2.9266,2.93,2.9308,2.9316,2.9342,2.9351,2.9235,2.9235,2.9235,0,2.8793,2.8855,2.8861,2.8906,2.8929,2.8919,2.8968,2.8989,2.9032,2.9047,2.9031,2.9111,2.9131,2.9197,2.9216,2.9233,2.9244,2.9224,2.9307,2.9314,2.9321,2.9346,2.9356,2.9237,2.9237,2.9237,2.9236,0,2.8889,2.8932,2.8968,2.901,2.9037,2.9084,2.9095,2.9121,2.912,2.9131,2.9186,2.921,2.9249,2.9265,2.9265,2.933,2.932,2.9306,2.9276,2.9334,2.9357,2.9367,2.924,2.9239,2.9239,2.9238,0,0,2.8979,2.9023,2.9036,2.9054,2.909,2.9122,2.9167,2.9207,2.9228,2.9258,2.9295,2.9349,2.9335,2.9357,2.9359,2.9388,2.9446,2.937,2.937,2.9382,2.9518,2.9528,2.9539,2.944,2.9442,2.9444,2.9514,0,2.9052,2.9133,2.9139,2.9211,2.925,2.9241,2.928,2.9305,2.9316,2.9349,2.9361,2.9399,2.9378,2.9391,2.942,2.9433,2.9473,2.9428,2.9473,2.9474,2.9464,2.9551,2.9562,2.9628,2.9524,2.9525,2.9527,0,2.9149,2.9182,2.9258,2.9287,2.9303,2.9338,2.9374,2.9406,2.9434,2.9439,2.9463,2.9461,2.9505,2.9475,2.9535,2.9504,2.9523,2.9531,2.9534,2.9537,2.9503,2.9555,2.9649,2.9658,2.9541,2.954,2.9539,0,2.9204,2.9267,2.9321,2.9337,2.9372,2.9397,2.9412,2.9438,2.9461,2.9491,2.9506,2.9541,2.956,2.9586,2.9592,2.957,2.9652,2.9622,2.9656,2.9656,2.9673,2.9672,2.977,2.9687,2.9687,2.9687,2.9687,0,2.9285,2.9331,2.9346,2.9378,2.943,2.9435,2.9485,2.9499,2.9522,2.9556,2.955,2.9582,2.9588,2.9621,2.9626,2.9674,2.9683,2.9687,2.9688,2.9687,2.9686,2.9698,2.9693,2.969,2.9689,2.9688,2.9688,0,2.9355,2.9367,2.9424,2.9452,2.9461,2.9497,2.9521,2.9551,2.9561,2.9604,2.9614,2.963,2.9667,2.9676,2.9721,2.9724,2.978,2.9777,2.9771,2.9771,2.9803,2.9799,2.9911,2.9925,2.9835,2.9836,2.9837,0,2.9405,2.944,2.9472,2.9495,2.9512,2.9549,2.9572,2.9578,2.9602,2.9635,2.9661,2.9698,2.9728,2.9789,2.9803,2.9837,2.9833,2.987,2.9838,2.9836,2.9832,2.9829,2.9832,2.9876,2.9877,2.9878,2.9878,0,2.9491,2.9495,2.9529,2.9565,2.9593,2.9621,2.9648,2.9666,2.9676,2.9703,2.9742,2.9765,2.9811,2.9847,2.9881,2.9895,2.9888,2.9889,2.9898,2.9897,2.9891,2.9893,2.9786,2.9886,2.9885,2.9884,2.9884,2.9884,2.9552,2.9582,2.9609,2.9647,2.9668,2.9693,2.9722,2.9736,2.9769,2.9807,2.9808,2.985,2.9875,2.992,2.9936,2.9968,2.9956,2.997,2.9973,2.9976,2.9978,2.9887,2.9974,2.9974,2.9974,2.9973,2.9973,0,2.9636,2.9653,2.9688,2.9726,2.9755,2.9746,2.9775,2.98,2.9837,2.9861,2.9891,2.9934,2.9969,2.9986,3.002,3.0042,3.004,3.0051,3.0049,3.0052,2.9987,2.9975,3.0052,3.0052,3.0052,3.0052,3.0052,3.0052,2.9684,2.9734,2.9741,2.9801,2.9818,2.9859,2.9876,2.9898,2.9918,2.9967,2.9996,3.0007,3.0028,3.0063,3.0094,3.0098,3.011,3.0123,3.0125,3.0064,3.0056,3.0049,3.0037,3.0126,3.0126,3.0186,3.0187,3.0187]}]]